DateTimeUTC,F1_A11,F1_S11,BsB_S11,BsG_S11,BsR_S11,BbsB_S11,BbsG_S11,BbsR_S11,BaB_A11,BaG_A11,BaR_A11,Tu_S11,T_S11,Uu_S11,U_S11,P_S11,T1_A11
2021-04-27T09:00:00Z,00040200,20000000,,,,,,,0000.02,-000.03,0000.08,18.4,25.2,05.9,03.9,0684.2,31.1
2021-04-27T09:01:00Z,00040200,20000000,,,,,,,0000.19,-000.07,-000.11,18.4,25.3,05.9,03.9,0684.2,31.2
2021-04-27T09:02:00Z,00040200,20000000,,,,,,,0000.20,0000.14,0000.49,18.4,25.3,05.9,03.9,0684.2,31.2
2021-04-27T09:03:00Z,00040200,60000000,,,,,,,0000.96,0001.18,0000.61,18.4,25.3,05.9,03.9,0684.2,31.2
2021-04-27T09:04:00Z,00040200,40000000,0001.55,0001.12,0000.68,0000.05,0000.18,0000.01,0000.54,0000.61,0000.33,18.5,25.2,06.4,04.3,0685.1,31.2
2021-04-27T09:05:00Z,00040200,00000000,0002.59,0001.00,0000.97,0000.63,0000.30,0000.14,0000.66,0000.70,0000.92,18.6,25.1,06.6,04.4,0685.1,31.2
2021-04-27T09:06:00Z,00040200,00000000,0002.46,0001.31,0000.56,0000.56,0000.48,0000.09,0001.27,0000.49,0000.39,18.6,25.1,06.6,04.4,0685.1,31.2
2021-04-27T09:07:00Z,00040200,00000000,0002.61,0001.35,0000.73,0000.74,0000.11,0000.24,0000.55,0000.73,0000.43,18.6,25.1,06.7,04.5,0685.1,31.1
2021-04-27T09:08:00Z,00040200,00000000,0002.37,0000.95,0000.89,0000.36,0000.27,0000.33,0000.45,0000.15,0000.36,18.6,25.1,06.8,04.6,0685.1,31.2
2021-04-27T09:09:00Z,00040200,00000000,0002.58,0001.29,0000.78,0000.42,0000.19,0000.16,0000.42,0000.67,0000.34,18.7,25.1,06.7,04.5,0685.1,31.2
2021-04-27T09:10:00Z,00040200,00000000,0001.99,0001.22,0000.66,0000.15,0000.18,0000.03,0000.64,0000.57,0000.39,18.7,25.1,06.6,04.4,0685.1,31.2
2021-04-27T09:11:00Z,00040200,00000000,0002.41,0001.34,0000.68,0000.63,-000.13,0000.47,-000.08,0000.22,0000.25,18.7,25.2,06.6,04.4,0685.1,31.2
2021-04-27T09:12:00Z,00040200,00000000,0002.17,0001.09,0000.82,0000.27,0000.35,0000.24,0000.62,0000.44,0000.32,18.7,25.2,06.3,04.3,0685.1,31.2
2021-04-27T09:13:00Z,00040200,00000000,0002.12,0001.35,0000.46,0000.08,0000.16,0000.31,0000.16,0000.30,-000.04,18.7,25.2,06.3,04.2,0685.1,31.2
2021-04-27T09:14:00Z,00040200,00000000,0002.72,0001.24,0000.62,0000.58,0000.36,-000.14,0000.92,0000.42,0000.63,18.7,25.2,06.3,04.3,0685.1,31.2
2021-04-27T09:15:00Z,00040200,00000000,0002.15,0001.25,0000.74,0000.72,0000.26,0000.26,0000.25,0000.81,0000.51,18.8,25.2,06.1,04.2,0685.1,31.2
2021-04-27T09:16:00Z,00040200,00000000,0002.29,0001.30,0000.94,0000.66,0000.30,0000.39,0000.35,0000.34,0000.14,18.8,25.2,06.2,04.2,0685.1,31.2
2021-04-27T09:17:00Z,00040200,00000000,0002.51,0001.23,0000.95,0000.29,0000.29,0000.17,0000.90,0000.47,0000.77,18.8,25.2,06.2,04.2,0685.1,31.2
2021-04-27T09:18:00Z,00040200,00000000,0002.59,0001.43,0000.68,0000.50,0000.31,0000.13,0000.68,0000.53,0000.23,18.8,25.2,06.2,04.2,0685.1,31.2
2021-04-27T09:19:00Z,00040200,00000000,0002.47,0001.46,0000.71,0000.35,0000.48,0000.14,0000.63,0000.61,0000.52,18.8,25.2,06.2,04.2,0685.1,31.2
2021-04-27T09:20:00Z,00040200,00000000,0002.36,0001.43,0000.97,0000.26,0000.10,0000.21,0000.82,0001.08,0000.50,18.8,25.2,06.2,04.2,0685.1,31.2
2021-04-27T09:21:00Z,00040200,00000000,0002.27,0001.34,0000.79,0000.42,0000.34,-000.09,0001.08,0000.65,0000.57,18.8,25.2,06.4,04.3,0685.1,31.2
2021-04-27T09:22:00Z,00040200,00000000,0002.24,0001.48,0000.85,0000.64,0000.37,0000.37,0000.65,0000.85,0000.84,18.8,25.2,06.4,04.3,0685.1,31.2
2021-04-27T09:23:00Z,00040200,00000000,0002.84,0001.33,0000.83,0000.38,0000.17,0000.13,0000.58,0000.42,0000.51,18.8,25.3,06.5,04.4,0685.1,31.2
2021-04-27T09:24:00Z,00040200,00000000,0002.42,0001.75,0000.90,0001.05,0000.13,0000.05,0001.55,0000.92,0000.70,18.9,25.3,06.8,04.6,0685.1,31.2
2021-04-27T09:25:00Z,00040200,00000000,0002.56,0001.41,0000.82,0000.51,0000.26,0000.24,0000.98,0000.90,0000.72,18.8,25.3,06.9,04.7,0685.1,31.2
2021-04-27T09:26:00Z,00040200,00000000,0002.96,0001.33,0000.92,0000.24,0000.28,0000.16,0000.93,0001.17,0000.65,18.9,25.3,07.1,04.8,0685.1,31.2
2021-04-27T09:27:00Z,00040200,00000000,0002.81,0001.34,0001.08,0000.15,0000.26,0000.25,0001.29,0001.23,0001.34,18.9,25.3,07.3,05.0,0685.1,31.2
2021-04-27T09:28:00Z,00040200,00000000,0002.47,0001.58,0001.37,0000.32,0000.20,0000.34,0000.61,0000.33,0000.15,18.9,25.3,07.5,05.0,0685.0,31.2
2021-04-27T09:29:00Z,00040200,00000000,0002.84,0001.61,0001.07,0000.38,0000.23,0000.27,0000.91,0001.19,0000.75,18.9,25.3,07.5,05.1,0685.0,31.2
2021-04-27T09:30:00Z,00040200,00000000,0002.76,0001.29,0000.93,0000.42,0000.29,0000.21,0000.85,0000.39,0000.44,18.9,25.3,07.6,05.2,0685.0,31.2
2021-04-27T09:31:00Z,00040200,00000000,0002.68,0001.31,0001.13,0000.70,0000.29,0000.26,0000.73,0000.69,0000.45,19.0,25.3,07.6,05.1,0685.0,31.2
2021-04-27T09:32:00Z,00040200,00000000,0002.31,0001.35,0000.85,0000.37,0000.26,0000.38,0000.43,0000.82,0000.43,19.0,25.3,07.5,05.1,0685.1,31.2
2021-04-27T09:33:00Z,00040200,00000000,0002.60,0001.55,0001.01,0000.37,0000.44,0000.27,0000.22,0000.14,0000.40,19.0,25.3,07.4,05.0,0685.1,31.2
2021-04-27T09:34:00Z,00040200,00000000,0002.84,0001.48,0000.71,0000.94,0000.30,0000.06,0000.36,0000.21,0000.25,19.0,25.4,07.2,04.8,0685.1,31.2
2021-04-27T09:35:00Z,00040200,00000000,0001.62,0001.30,0000.99,0000.32,0000.34,0000.26,-000.36,-000.08,-000.60,19.0,25.4,06.9,04.6,0685.1,31.2
2021-04-27T09:36:00Z,00040200,00000000,0002.47,0001.19,0000.92,0000.19,0000.19,0000.13,0000.67,0000.19,0000.76,19.0,25.4,06.6,04.5,0685.1,31.2
2021-04-27T09:37:00Z,00040200,00000000,0002.31,0001.30,0001.06,0000.33,0000.36,0000.11,0000.65,0000.98,0000.52,19.0,25.4,06.6,04.5,0685.1,31.2
2021-04-27T09:38:00Z,00040200,00000000,0002.73,0001.89,0000.90,0000.54,-000.00,0000.27,0000.98,0000.80,0000.70,19.0,25.4,06.7,04.5,0685.1,31.2
2021-04-27T09:39:00Z,00040200,00000000,0002.70,0001.49,0001.00,0000.59,0000.47,0000.23,0000.78,0001.03,0000.36,19.0,25.4,06.6,04.5,0685.1,31.2
2021-04-27T09:40:00Z,00040200,00000000,0002.25,0001.32,0000.70,0000.52,0000.35,0000.18,0000.83,0000.33,0000.59,19.0,25.4,06.7,04.6,0685.1,31.2
2021-04-27T09:41:00Z,00040200,00000000,0002.46,0001.38,0000.78,0000.53,0000.34,-000.02,-000.43,-000.33,-000.12,19.0,25.4,06.5,04.4,0685.1,31.2
2021-04-27T09:42:00Z,00040200,00000000,0002.10,0001.37,0000.75,0000.54,0000.33,0000.19,-000.17,-000.06,-000.06,19.0,25.4,06.2,04.2,0685.1,31.2
2021-04-27T09:43:00Z,00040200,00000000,0002.12,0001.72,0000.65,0000.29,0000.47,0000.51,0000.96,0001.02,0000.59,19.0,25.4,06.0,04.1,0685.1,31.2
2021-04-27T09:44:00Z,00040200,00000000,0002.13,0001.11,0000.93,0000.44,0000.24,0000.13,0000.58,0000.53,0000.37,19.0,25.4,06.1,04.1,0685.2,31.2
2021-04-27T09:45:00Z,00040200,00000000,0002.45,0001.56,0000.76,0000.78,0000.34,0000.11,0000.67,-000.01,0000.30,19.0,25.4,06.0,04.1,0685.2,31.2
2021-04-27T09:46:00Z,00040200,00000000,0002.08,0001.41,0000.72,0000.78,0000.38,0000.17,0000.13,0000.84,0000.06,19.0,25.4,05.9,04.0,0685.1,31.2
2021-04-27T09:47:00Z,00040200,00000000,0002.05,0001.33,0000.58,0000.09,0000.01,0000.16,0000.96,0000.46,0000.42,19.1,25.4,06.0,04.1,0685.2,31.2
2021-04-27T09:48:00Z,00040200,00000000,0002.65,0001.42,0000.62,0000.74,0000.29,0000.22,0000.08,0000.26,0000.19,19.1,25.5,05.9,04.0,0685.1,31.2
2021-04-27T09:49:00Z,00040200,00000000,0002.74,0001.05,0000.85,0000.88,0000.39,0000.17,0000.67,0000.87,0000.72,19.0,25.5,05.8,03.9,0685.1,31.2
2021-04-27T09:50:00Z,00040200,00000000,0001.79,0001.52,0000.80,-000.25,0000.18,0000.17,0000.99,0000.37,0000.58,19.0,25.5,06.0,04.1,0685.1,31.2
2021-04-27T09:51:00Z,00040200,00000000,0002.82,0001.27,0000.48,0000.42,0000.17,0000.30,0000.50,0000.55,0000.19,19.1,25.5,06.0,04.1,0685.1,31.2
2021-04-27T09:52:00Z,00040200,00000000,0001.88,0001.23,0000.54,0000.55,0000.01,0000.21,0000.61,0000.68,0000.65,19.0,25.5,06.1,04.1,0685.2,31.2
2021-04-27T09:53:00Z,00040200,00000000,0002.00,0001.34,0000.80,0000.68,0000.36,0000.24,0000.13,0000.58,0000.43,19.1,25.5,06.1,04.1,0685.2,31.2
2021-04-27T09:54:00Z,00040200,00000000,0002.24,0001.47,0000.87,0000.96,0000.25,0000.12,0001.17,0000.40,0000.59,19.1,25.5,06.1,04.1,0685.2,31.2
2021-04-27T09:55:00Z,00040200,00000000,0002.73,0001.34,0000.96,0000.51,0000.20,-000.03,0000.42,0000.21,0000.02,19.1,25.5,06.1,04.1,0685.2,31.2
2021-04-27T09:56:00Z,00040200,00000000,0002.66,0001.33,0000.78,0000.78,0000.23,0000.04,0000.81,0001.31,0000.61,19.1,25.5,06.0,04.1,0685.1,31.2
2021-04-27T09:57:00Z,00040200,40000000,,,,,,,0000.48,0000.15,0000.50,19.1,25.5,05.8,03.9,0685.0,31.2
2021-04-27T09:58:00Z,00040200,60000000,,,,,,,-000.09,0000.03,-000.15,18.9,25.6,06.2,04.1,0684.1,31.2
2021-04-27T09:59:00Z,00040200,20000000,,,,,,,0000.21,0000.02,0000.40,18.9,25.7,06.2,04.1,0684.1,31.2
